CW3777 Weather Reports


Display with metric or nautical units.
time (UTC)temp
F
wind
direction
speed
MPH
gust
MPH
rain 1hr
in
rain 24hr
in
rain mn
in
humidity
%
barometer
mb
20171124050143 31 308 0.0 0.0 0.00 0.00 0.00 93 1024.7
20171124043142 31 308 0.0 0.0 0.00 0.00 0.00 93 1024.7
20171124040642 31 308 0.0 0.0 0.00 0.00 0.00 93 1024.7
20171124033143 32 308 0.0 0.0 0.00 0.00 0.00 92 1024.7
20171124030642 32 308 0.0 0.0 0.00 0.00 0.00 92 1024.7
20171124023642 33 308 0.0 0.0 0.00 0.00 0.00 91 1024.7
20171124023142 33 308 0.0 0.0 0.00 0.00 0.00 90 1024.7
20171124010643 34 308 0.0 0.0 0.00 0.00 0.00 89 1024.7
20171124010142 34 308 0.0 0.0 0.00 0.00 0.00 88 1024.7
20171124003642 35 308 0.0 0.0 0.00 0.00 0.00 86 1024.7
20171124003142 35 308 0.0 0.0 0.00 0.00 0.00 86 1024.7
20171124000642 36 308 0.0 0.0 0.00 0.00 0.00 84 1024.7
20171124000143 36 308 0.0 0.0 0.00 0.00 0.00 83 1024.7
20171123233642 37 308 0.0 0.0 0.00 0.00 0.00 81 1024.7
20171123233143 37 308 0.0 0.0 0.00 0.00 0.00 81 1024.7
20171123230642 37 308 0.0 0.0 0.00 0.00 0.00 79 1024.7
20171123230143 38 308 0.0 0.0 0.00 0.00 0.00 78 1024.7
20171123223642 39 308 0.0 0.0 0.00 0.00 0.00 75 1024.7
20171123223146 39 308 0.0 0.0 0.00 0.00 0.00 74 1024.7
20171123220642 41 308 0.0 0.0 0.00 0.00 0.00 69 1024.7
20171123220143 41 308 0.0 0.0 0.00 0.00 0.00 70 1024.7
20171123213642 42 308 0.0 2.0 0.00 0.00 0.00 64 1024.7
20171123213142 43 308 0.0 7.0 0.00 0.00 0.00 62 1024.7
20171123210642 44 261 0.0 0.0 0.00 0.00 0.00 53 1024.7
20171123210143 45 261 0.0 3.0 0.00 0.00 0.00 55 1024.7
20171123203643 45 262 1.0 3.0 0.00 0.00 0.00 52 1024.7
20171123203143 45 262 0.0 3.0 0.00 0.00 0.00 51 1024.7
20171123200642 46 28 2.0 3.0 0.00 0.00 0.00 50 1024.7
20171123200143 46 40 0.0 3.0 0.00 0.00 0.00 52 1024.7
20171123193643 46 40 0.0 5.0 0.00 0.00 0.00 55 1024.7
20171123193143 46 40 2.0 5.0 0.00 0.00 0.00 57 1024.7
20171123190643 46 85 3.0 3.0 0.00 0.00 0.00 58 1024.7
20171123190143 46 86 2.0 3.0 0.00 0.00 0.00 56 1024.7
20171123183642 46 231 1.0 3.0 0.00 0.00 0.00 51 1024.7
20171123183142 45 231 1.0 3.0 0.00 0.00 0.00 51 1024.7
20171123180642 45 281 1.0 3.0 0.00 0.00 0.00 52 1024.7
20171123180142 45 285 2.0 6.0 0.00 0.00 0.00 53 1024.7
20171123173643 46 227 3.0 6.0 0.00 0.00 0.00 55 1024.7
20171123173143 46 218 2.0 6.0 0.00 0.00 0.00 54 1024.7
20171123170643 45 217 2.0 3.0 0.00 0.00 0.00 52 1024.7
20171123170143 45 227 1.0 8.0 0.00 0.00 0.00 56 1024.7
20171123163643 45 5 1.0 5.0 0.00 0.00 0.00 56 1024.7
20171123163143 45 9 2.0 7.0 0.00 0.00 0.00 59 1024.7
20171123160144 43 39 2.0 8.0 0.00 0.00 0.00 61 1024.7
20171123153642 43 57 4.0 6.0 0.00 0.00 0.00 61 1024.7
20171123153143 43 26 3.0 8.0 0.00 0.00 0.00 64 1024.7
20171123150642 42 21 6.0 10.0 0.00 0.00 0.00 64 1024.7
20171123150143 42 22 3.0 10.0 0.00 0.00 0.00 66 1024.7
20171123143642 42 18 1.0 9.0 0.00 0.00 0.00 64 1024.7
20171123143142 42 348 6.0 12.0 0.00 0.00 0.00 62 1024.7
20171123140644 40 357 4.0 12.0 0.00 0.00 0.00 65 1024.7
20171123140143 40 356 5.0 10.0 0.00 0.00 0.00 65 1024.7
20171123133643 38 355 4.0 10.0 0.00 0.00 0.00 67 1024.7
20171123133145 38 16 3.0 13.0 0.00 0.00 0.00 69 1024.7
20171123130642 38 13 4.0 7.0 0.00 0.00 0.00 71 1024.7
20171123130143 37 52 3.0 12.0 0.00 0.01 0.00 72 1024.7
20171123123643 37 355 1.0 9.0 0.00 0.03 0.00 76 1024.7
20171123123143 36 354 3.0 12.0 0.00 0.04 0.00 75 1024.7
20171123120643 36 339 3.0 6.0 0.00 0.13 0.00 75 1024.7
20171123120142 36 355 2.0 8.0 0.00 0.13 0.00 75 1024.7
20171123113642 36 349 2.0 10.0 0.00 0.13 0.00 74 1024.7
20171123113142 36 355 1.0 9.0 0.00 0.13 0.00 75 1024.7
20171123110642 36 350 3.0 6.0 0.00 0.13 0.00 75 1024.7
20171123110143 36 355 2.0 9.0 0.00 0.13 0.00 74 1024.7
20171123103642 36 5 2.0 6.0 0.00 0.13 0.00 76 1024.7
20171123103144 36 5 1.0 6.0 0.00 0.13 0.00 77 1024.7
20171123100643 36 5 1.0 3.0 0.00 0.13 0.00 77 1024.7
20171123100143 36 5 1.0 6.0 0.00 0.13 0.00 76 1024.7
20171123093643 36 5 2.0 5.0 0.00 0.13 0.00 76 1024.7
20171123093144 36 5 2.0 5.0 0.00 0.13 0.00 76 1024.7
20171123090643 37 5 1.0 3.0 0.00 0.13 0.00 74 1024.7
20171123090143 37 5 2.0 3.0 0.00 0.13 0.00 74 1024.7
20171123083643 37 5 1.0 3.0 0.00 0.13 0.00 73 1024.7
20171123083143 37 5 2.0 5.0 0.00 0.13 0.00 72 1024.7
20171123080143 38 5 1.0 6.0 0.00 0.13 0.00 71 1024.7
20171123073643 39 5 3.0 5.0 0.00 0.13 0.00 71 1024.7
20171123073143 39 5 1.0 8.0 0.00 0.13 0.00 71 1024.7
20171123070643 39 5 0.0 3.0 0.00 0.13 0.00 69 1024.7
20171123070142 39 5 3.0 6.0 0.00 0.13 0.00 70 1024.7
20171123063643 40 0 4.0 8.0 0.00 0.13 0.00 67 1024.7
20171123063143 40 0 1.0 9.0 0.00 0.13 0.00 68 1024.7
20171123060643 40 323 3.0 6.0 0.00 0.13 0.00 69 1024.7
20171123060143 40 5 0.0 10.0 0.00 0.13 0.00 68 1024.7
20171123053643 41 5 3.0 9.0 0.00 0.13 0.00 66 1024.7